| time (UTC) | temp F | wind direction | speed knots | gust knots | rain 1hr in | rain 24hr in | rain mn in | humidity % | barometer mb |
| 20260831085215 | 61 | 344 | 1.7 | 1.7 | 0.00 | 0.02 | 0.00 | 71 | 1020.5 |
| 20260831084215 | 62 | 344 | 1.7 | 2.6 | 0.00 | 0.02 | 0.00 | 70 | 1020.9 |
| 20260831083215 | 63 | 344 | 0.0 | 0.9 | 0.00 | 0.02 | 0.00 | 69 | 1021.0 |
| 20260831082215 | 64 | 344 | 0.0 | 1.7 | 0.00 | 0.02 | 0.00 | 66 | 1021.0 |
| 20260831081215 | 64 | 344 | 3.5 | 5.2 | 0.00 | 0.02 | 0.00 | 67 | 1021.0 |
| 20260831080215 | 63 | 344 | 3.5 | 4.3 | 0.00 | 0.02 | 0.00 | 69 | 1021.2 |
| 20260831075215 | 63 | 344 | 3.5 | 5.2 | 0.00 | 0.02 | 0.00 | 70 | 1021.2 |
| 20260831074215 | 64 | 20 | 2.6 | 3.5 | 0.00 | 0.02 | 0.00 | 66 | 1021.2 |
| 20260831073215 | 65 | 0.0 | 0.9 | 0.00 | 0.02 | 0.00 | 67 | 1021.4 | |
| 20260831072215 | 64 | 317 | 6.1 | 8.7 | 0.00 | 0.02 | 0.00 | 69 | 1021.1 |
| 20260831071217 | 62 | 355 | 3.5 | 4.3 | 0.00 | 0.02 | 0.00 | 73 | 1021.1 |
| 20260831070237 | 62 | 355 | 1.7 | 2.6 | 0.00 | 0.03 | 0.00 | 72 | 1021.0 |
| 20260831065217 | 63 | 355 | 1.7 | 2.6 | 0.00 | 0.03 | 0.00 | 72 | 1021.1 |
| 20260831064217 | 63 | 355 | 3.5 | 4.3 | 0.00 | 0.03 | 0.00 | 71 | 1020.9 |
| 20260831063217 | 63 | 355 | 0.9 | 1.7 | 0.00 | 0.03 | 0.00 | 69 | 1020.8 |
| 20260831062217 | 64 | 355 | 1.7 | 2.6 | 0.00 | 0.03 | 0.00 | 67 | 1020.9 |
| 20260831061217 | 65 | 355 | 2.6 | 4.3 | 0.00 | 0.03 | 0.00 | 67 | 1021.1 |
| 20260831060217 | 64 | 355 | 2.6 | 3.5 | 0.00 | 0.03 | 0.00 | 69 | 1020.7 |
| 20260831055216 | 64 | 355 | 2.6 | 4.3 | 0.00 | 0.03 | 0.03 | 70 | 1020.9 |
| 20260831054256 | 64 | 355 | 3.5 | 3.5 | 0.00 | 0.03 | 0.03 | 69 | 1021.0 |
| 20260831053216 | 64 | 355 | 2.6 | 2.6 | 0.00 | 0.03 | 0.03 | 67 | 1020.8 |
| 20260831052216 | 65 | 355 | 1.7 | 2.6 | 0.00 | 0.03 | 0.03 | 68 | 1020.8 |
| 20260831051216 | 65 | 355 | 1.7 | 3.5 | 0.00 | 0.03 | 0.03 | 67 | 1020.9 |
| 20260831050215 | 65 | 348 | 0.9 | 2.6 | 0.00 | 0.04 | 0.03 | 67 | 1020.6 |
| 20260831045216 | 66 | 348 | 1.7 | 1.7 | 0.00 | 0.06 | 0.03 | 64 | 1020.8 |
| 20260831044236 | 65 | 348 | 0.9 | 1.7 | 0.00 | 0.07 | 0.03 | 64 | 1020.4 |
| 20260831043215 | 65 | 348 | 0.9 | 1.7 | 0.00 | 0.09 | 0.03 | 63 | 1020.3 |
| 20260831042215 | 65 | 348 | 1.7 | 1.7 | 0.00 | 0.10 | 0.03 | 62 | 1020.1 |
| 20260831041215 | 66 | 348 | 0.9 | 1.7 | 0.00 | 0.10 | 0.03 | 63 | 1020.1 |
| 20260831040216 | 66 | 348 | 1.7 | 2.6 | 0.00 | 0.10 | 0.03 | 61 | 1019.9 |
| 20260831035216 | 66 | 348 | 1.7 | 2.6 | 0.00 | 0.10 | 0.03 | 61 | 1019.9 |
| 20260831034216 | 66 | 348 | 1.7 | 2.6 | 0.00 | 0.10 | 0.03 | 62 | 1019.7 |
| 20260831033215 | 66 | 49 | 1.7 | 2.6 | 0.00 | 0.11 | 0.03 | 63 | 1019.8 |
| 20260831032216 | 66 | 49 | 0.9 | 1.7 | 0.00 | 0.13 | 0.03 | 64 | 1019.9 |
| 20260831031215 | 67 | 49 | 1.7 | 2.6 | 0.00 | 0.13 | 0.03 | 63 | 1020.3 |
| 20260831030215 | 67 | 49 | 1.7 | 2.6 | 0.00 | 0.13 | 0.03 | 63 | 1019.6 |
| 20260831025216 | 68 | 49 | 0.9 | 0.9 | 0.00 | 0.13 | 0.03 | 62 | 1019.9 |
| 20260831024215 | 68 | 49 | 1.7 | 3.5 | 0.00 | 0.13 | 0.03 | 61 | 1019.7 |
| 20260831023235 | 68 | 31 | 1.7 | 2.6 | 0.00 | 0.13 | 0.03 | 61 | 1019.3 |
| 20260831022336 | 68 | 42 | 3.5 | 4.3 | 0.00 | 0.13 | 0.03 | 64 | 1019.2 |
| 20260831021215 | 68 | 55 | 1.7 | 3.5 | 0.00 | 0.13 | 0.03 | 66 | 1019.3 |
| 20260831020215 | 69 | 15 | 0.9 | 2.6 | 0.00 | 0.13 | 0.03 | 66 | 1019.2 |
| 20260831015215 | 70 | 40 | 4.3 | 6.1 | 0.00 | 0.13 | 0.03 | 63 | 1019.5 |
| 20260831014215 | 71 | 42 | 5.2 | 7.8 | 0.00 | 0.13 | 0.03 | 60 | 1019.4 |
| 20260831013236 | 73 | 58 | 6.1 | 8.7 | 0.00 | 0.13 | 0.03 | 53 | 1019.5 |
| 20260831012215 | 74 | 48 | 9.6 | 12.2 | 0.00 | 0.13 | 0.03 | 51 | 1019.7 |
| 20260831011215 | 74 | 39 | 7.0 | 10.4 | 0.00 | 0.16 | 0.03 | 51 | 1019.8 |
| 20260831010215 | 75 | 41 | 8.7 | 11.3 | 0.00 | 0.25 | 0.03 | 51 | 1019.9 |
| 20260831005215 | 75 | 41 | 8.7 | 12.2 | 0.00 | 0.25 | 0.03 | 50 | 1020.0 |
| 20260831004215 | 76 | 38 | 6.1 | 8.7 | 0.00 | 0.25 | 0.03 | 50 | 1020.2 |
| 20260831003217 | 75 | 14 | 7.0 | 10.4 | 0.00 | 0.25 | 0.03 | 49 | 1020.3 |
| 20260831002215 | 76 | 14 | 7.8 | 9.6 | 0.00 | 0.25 | 0.03 | 47 | 1020.6 |
| 20260831001215 | 77 | 10 | 8.7 | 11.3 | 0.00 | 0.25 | 0.03 | 46 | 1020.8 |
| 20260831000215 | 77 | 342 | 4.3 | 9.6 | 0.00 | 0.25 | 0.03 | 46 | 1020.7 |
| 20260830235215 | 77 | 11 | 4.3 | 11.3 | 0.00 | 0.25 | 0.03 | 49 | 1020.2 |
| 20260830234215 | 76 | 34 | 5.2 | 9.6 | 0.00 | 0.25 | 0.03 | 49 | 1020.2 |
| 20260830233215 | 75 | 44 | 5.2 | 9.6 | 0.00 | 0.25 | 0.03 | 50 | 1020.4 |
| 20260830232215 | 75 | 54 | 8.7 | 11.3 | 0.00 | 0.25 | 0.03 | 50 | 1020.7 |
| 20260830231215 | 75 | 62 | 7.0 | 10.4 | 0.00 | 0.25 | 0.03 | 50 | 1020.7 |
| 20260830230215 | 76 | 72 | 3.5 | 6.1 | 0.00 | 0.25 | 0.03 | 38 | 1020.4 |
| 20260830225215 | 75 | 69 | 5.2 | 7.0 | 0.00 | 0.25 | 0.03 | 34 | 1020.3 |
| 20260830224235 | 75 | 65 | 1.7 | 3.5 | 0.00 | 0.25 | 0.03 | 36 | 1020.2 |
| 20260830223215 | 75 | 84 | 1.7 | 4.3 | 0.00 | 0.25 | 0.03 | 39 | 1019.8 |
| 20260830222215 | 74 | 104 | 2.6 | 5.2 | 0.00 | 0.25 | 0.03 | 44 | 1020.2 |
| 20260830221215 | 73 | 70 | 4.3 | 6.1 | 0.00 | 0.25 | 0.03 | 48 | 1020.1 |
| 20260830220217 | 72 | 86 | 4.3 | 6.1 | 0.00 | 0.25 | 0.03 | 55 | 1019.8 |
| 20260830215215 | 73 | 65 | 4.3 | 7.0 | 0.00 | 0.25 | 0.03 | 57 | 1020.2 |
| 20260830214217 | 74 | 80 | 3.5 | 7.8 | 0.00 | 0.25 | 0.03 | 52 | 1020.2 |
| 20260830213215 | 74 | 115 | 2.6 | 7.8 | 0.00 | 0.25 | 0.03 | 51 | 1020.5 |
| 20260830212237 | 75 | 97 | 4.3 | 8.7 | 0.00 | 0.25 | 0.03 | 55 | 1020.7 |
| 20260830211216 | 75 | 99 | 7.0 | 10.4 | 0.00 | 0.25 | 0.03 | 57 | 1020.9 |
| 20260830210217 | 75 | 112 | 5.2 | 7.8 | 0.00 | 0.25 | 0.03 | 60 | 1021.2 |
| 20260830205216 | 75 | 101 | 6.1 | 9.6 | 0.00 | 0.25 | 0.03 | 62 | 1021.3 |
| 20260830204216 | 74 | 87 | 6.1 | 9.6 | 0.00 | 0.25 | 0.03 | 61 | 1021.1 |
| 20260830203237 | 74 | 79 | 4.3 | 8.7 | 0.00 | 0.25 | 0.03 | 63 | 1021.3 |
| 20260830202217 | 73 | 119 | 5.2 | 11.3 | 0.00 | 0.25 | 0.03 | 64 | 1021.3 |
| 20260830201216 | 74 | 94 | 7.0 | 9.6 | 0.00 | 0.25 | 0.03 | 61 | 1021.4 |
| 20260830200216 | 73 | 91 | 5.2 | 7.8 | 0.00 | 0.25 | 0.03 | 61 | 1021.3 |
| 20260830195216 | 73 | 101 | 5.2 | 7.8 | 0.00 | 0.25 | 0.03 | 62 | 1021.5 |
| 20260830194216 | 73 | 109 | 6.1 | 9.6 | 0.00 | 0.25 | 0.03 | 63 | 1021.5 |
| 20260830193217 | 72 | 112 | 6.1 | 7.8 | 0.00 | 0.25 | 0.03 | 66 | 1021.6 |
| 20260830192217 | 72 | 84 | 7.8 | 8.7 | 0.00 | 0.25 | 0.03 | 65 | 1021.8 |
| 20260830191216 | 72 | 88 | 6.1 | 8.7 | 0.00 | 0.25 | 0.03 | 65 | 1022.1 |
| 20260830190216 | 72 | 104 | 4.3 | 7.0 | 0.00 | 0.25 | 0.03 | 65 | 1022.2 |
| 20260830185216 | 71 | 98 | 6.1 | 8.7 | 0.00 | 0.25 | 0.03 | 65 | 1021.9 |
| 20260830184217 | 72 | 117 | 4.3 | 9.6 | 0.00 | 0.25 | 0.03 | 65 | 1022.1 |
| 20260830183216 | 72 | 91 | 4.3 | 7.0 | 0.00 | 0.25 | 0.03 | 65 | 1022.3 |
| 20260830182217 | 71 | 122 | 5.2 | 7.8 | 0.00 | 0.25 | 0.03 | 65 | 1022.0 |
| 20260830181236 | 71 | 111 | 5.2 | 8.7 | 0.00 | 0.25 | 0.03 | 66 | 1022.1 |
| 20260830180216 | 71 | 152 | 5.2 | 7.8 | 0.00 | 0.25 | 0.03 | 67 | 1022.1 |
| 20260830175236 | 71 | 114 | 6.1 | 7.0 | 0.00 | 0.25 | 0.03 | 68 | 1022.1 |
| 20260830174216 | 70 | 155 | 0.9 | 2.6 | 0.00 | 0.25 | 0.03 | 68 | 1022.1 |
| 20260830173236 | 70 | 154 | 2.6 | 4.3 | 0.00 | 0.25 | 0.03 | 67 | 1022.0 |
| 20260830172216 | 69 | 83 | 0.9 | 3.5 | 0.00 | 0.25 | 0.03 | 69 | 1022.0 |
| 20260830171236 | 68 | 180 | 0.9 | 2.6 | 0.00 | 0.35 | 0.03 | 69 | 1021.8 |
| 20260830170236 | 68 | 157 | 0.9 | 2.6 | 0.00 | 0.52 | 0.03 | 72 | 1021.7 |
| 20260830165216 | 67 | 176 | 0.0 | 0.9 | 0.00 | 0.52 | 0.03 | 75 | 1021.4 |
| 20260830164216 | 66 | 243 | 0.9 | 3.5 | 0.00 | 0.52 | 0.03 | 75 | 1021.4 |
| 20260830163216 | 66 | 190 | 2.6 | 5.2 | 0.00 | 0.52 | 0.03 | 78 | 1021.0 |
| 20260830162216 | 66 | 173 | 1.7 | 5.2 | 0.00 | 0.52 | 0.03 | 78 | 1020.9 |
| 20260830161216 | 66 | 149 | 2.6 | 3.5 | 0.00 | 0.52 | 0.03 | 77 | 1020.9 |
| 20260830160236 | 65 | 292 | 0.9 | 1.7 | 0.00 | 0.52 | 0.03 | 77 | 1020.8 |
| 20260830155216 | 65 | 292 | 0.9 | 0.9 | 0.00 | 0.52 | 0.03 | 78 | 1020.9 |
| 20260830154216 | 65 | 292 | 1.7 | 3.5 | 0.00 | 0.52 | 0.03 | 77 | 1020.7 |
| 20260830153216 | 65 | 156 | 2.6 | 5.2 | 0.00 | 0.52 | 0.03 | 75 | 1021.0 |
| 20260830152216 | 65 | 171 | 0.9 | 3.5 | 0.00 | 0.52 | 0.03 | 76 | 1021.0 |
| 20260830151216 | 65 | 146 | 0.9 | 2.6 | 0.00 | 0.52 | 0.03 | 76 | 1020.9 |
| 20260830150216 | 65 | 130 | 0.0 | 0.9 | 0.00 | 0.52 | 0.03 | 78 | 1021.0 |
| 20260830145216 | 64 | 130 | 1.7 | 1.7 | 0.00 | 0.52 | 0.03 | 82 | 1020.6 |
| 20260830144236 | 63 | 288 | 0.9 | 1.7 | 0.00 | 0.52 | 0.03 | 84 | 1020.6 |
| 20260830143236 | 62 | 0.0 | 0.9 | 0.00 | 0.52 | 0.03 | 84 | 1020.5 | |
| 20260830142216 | 62 | 288 | 0.9 | 2.6 | 0.01 | 0.52 | 0.03 | 83 | 1020.5 |
| 20260830141216 | 61 | 288 | 0.9 | 2.6 | 0.01 | 0.52 | 0.03 | 82 | 1020.1 |
| 20260830140216 | 60 | 295 | 5.2 | 7.0 | 0.01 | 0.52 | 0.03 | 84 | 1019.5 |
| 20260830135216 | 60 | 327 | 4.3 | 7.0 | 0.01 | 0.52 | 0.03 | 84 | 1019.5 |
| 20260830134216 | 60 | 267 | 1.7 | 2.6 | 0.01 | 0.52 | 0.03 | 84 | 1019.6 |
| 20260830133215 | 60 | 272 | 3.5 | 5.2 | 0.01 | 0.52 | 0.03 | 83 | 1020.8 |
| 20260830132215 | 60 | 224 | 3.5 | 6.1 | 0.00 | 0.51 | 0.02 | 84 | 1021.0 |
| 20260830131215 | 60 | 265 | 1.7 | 2.6 | 0.00 | 0.51 | 0.02 | 85 | 1020.3 |
| 20260830130216 | 60 | 265 | 1.7 | 1.7 | 0.00 | 0.51 | 0.02 | 85 | 1020.3 |
| 20260830125235 | 60 | 0.0 | 0.0 | 0.00 | 0.51 | 0.02 | 85 | 1019.9 | |
| 20260830124216 | 60 | 63 | 0.9 | 1.7 | 0.00 | 0.51 | 0.02 | 84 | 1020.0 |
| 20260830123215 | 61 | 240 | 1.7 | 2.6 | 0.00 | 0.51 | 0.02 | 83 | 1020.5 |
| 20260830122216 | 61 | 238 | 4.3 | 7.8 | 0.00 | 0.51 | 0.02 | 82 | 1020.4 |
| 20260830121216 | 61 | 313 | 0.9 | 1.7 | 0.00 | 0.51 | 0.02 | 79 | 1020.2 |
| 20260830120215 | 63 | 312 | 2.6 | 3.5 | 0.00 | 0.51 | 0.02 | 77 | 1020.1 |
| 20260830115216 | 62 | 314 | 2.6 | 6.1 | 0.00 | 0.51 | 0.02 | 79 | 1019.9 |
| 20260830114215 | 61 | 360 | 2.6 | 3.5 | 0.00 | 0.51 | 0.02 | 84 | 1019.9 |
| 20260830113215 | 61 | 277 | 7.0 | 9.6 | 0.00 | 0.51 | 0.02 | 84 | 1019.6 |
| 20260830112215 | 61 | 306 | 3.5 | 7.0 | 0.00 | 0.51 | 0.02 | 85 | 1019.8 |
| 20260830111215 | 61 | 322 | 0.0 | 2.6 | 0.00 | 0.51 | 0.02 | 85 | 1019.4 |
| 20260830110215 | 61 | 321 | 0.9 | 1.7 | 0.00 | 0.51 | 0.02 | 86 | 1019.4 |
| 20260830105215 | 61 | 321 | 0.9 | 3.5 | 0.00 | 0.51 | 0.02 | 87 | 1019.5 |
| 20260830104235 | 61 | 321 | 1.7 | 2.6 | 0.00 | 0.51 | 0.02 | 88 | 1019.5 |
| 20260830103215 | 61 | 321 | 1.7 | 2.6 | 0.00 | 0.51 | 0.02 | 88 | 1019.6 |
| 20260830102215 | 60 | 326 | 4.3 | 7.0 | 0.00 | 0.51 | 0.02 | 89 | 1019.7 |
| 20260830101215 | 60 | 308 | 2.6 | 3.5 | 0.00 | 0.51 | 0.02 | 89 | 1019.6 |
| 20260830100215 | 60 | 333 | 3.5 | 4.3 | 0.01 | 0.51 | 0.02 | 89 | 1020.2 |
| 20260830095235 | 61 | 333 | 1.7 | 2.6 | 0.01 | 0.51 | 0.02 | 89 | 1020.1 |
| 20260830094215 | 61 | 0.0 | 0.9 | 0.01 | 0.51 | 0.02 | 89 | 1020.3 | |
| 20260830093235 | 61 | 333 | 0.9 | 2.6 | 0.01 | 0.51 | 0.02 | 89 | 1020.1 |
| 20260830092215 | 61 | 312 | 2.6 | 6.1 | 0.01 | 0.51 | 0.02 | 89 | 1020.6 |
| 20260830091215 | 61 | 22 | 1.7 | 2.6 | 0.01 | 0.51 | 0.02 | 89 | 1020.8 |
| 20260830090215 | 61 | 22 | 0.9 | 2.6 | 0.00 | 0.50 | 0.01 | 89 | 1020.7 |